Home > Weather > Hof (Saale) > Past weeks

Flag for Germany Past Weather in Hof (Saale), Bavaria, Germany — Yesterday and Last 2 Weeks

Now
75 °F

Passing clouds.


Feels Like: 78 °F
Forecast: 61 / 73 °F
Wind: 3 mph from Northwest

Location: Hof Airport

Current Time: Jul 25, 2016 at 6:04:39 PM

Latest Report: Jul 25, 2016 at 5:20 PM


Visibility: N/A

Pressure: 30.09 "Hg

Humidity: 57%

Dew Point: 59 °F

Location of Hof (Saale)Location

Past Weather in Hof (Saale) — Graph

°F

Hof (Saale) Temperature Yesterday

Maximum temperature yesterday: 77 °F (at 1:50 PM)
Minimum temperature yesterday: 68 °F (at 5:20 PM)
Average temperature yesterday: 74 °F

High & Low Weather Summary for the Past Weeks

 TemperatureHumidityPressure
High84 °F (Jul 11, 1:20 PM)94% (Jul 13, 6:50 AM)30.30 "Hg (Jul 13, 6:50 AM)
Low48 °F (Jul 16, 6:50 AM)31% (Jul 20, 3:20 PM)30.01 "Hg (Jul 14, 1:20 PM)
Average67 °F64%30.13 "Hg
* Reported Jul 11 6:50 AM — Jul 25 4:50 PM, Hof (Saale), Weather by CustomWeather, © 2016

Note: Actual official high and low records may vary slightly from our data, if they occured in-between our weather recording intervals... More about our weather records

Advertising

Hof (Saale) Weather History for the Previous 24 Hours

Scroll right to see more
 ConditionsComfort  
Time TempWeatherWind HumidityBarometerVisibility
4:50 PM
Mon, Jul 25
75 °FPassing clouds.5 mph57%30.09 "HgN/A
4:20 PM75 °FPassing clouds.5 mph61%30.09 "HgN/A
3:50 PM75 °FPassing clouds.6 mph54%30.09 "HgN/A
3:20 PM79 °FSunny.3 mph37%30.09 "Hg10 mi
2:50 PM79 °FSunny.3 mph39%30.09 "Hg10 mi
2:20 PM79 °FPassing clouds.5 mph42%30.09 "HgN/A
1:50 PM77 °FPassing clouds.6 mph47%30.09 "HgN/A
1:20 PM77 °FSunny.1 mph44%30.09 "Hg10 mi
12:50 PM77 °FSunny.3 mph47%30.09 "Hg10 mi
12:20 PM77 °FSunny.2 mph44%30.12 "Hg10 mi
11:50 AM75 °FSunny.3 mph47%30.12 "Hg10 mi
11:20 AM75 °FScattered clouds.2 mph47%30.12 "HgN/A
10:50 AM72 °FScattered clouds.2 mph57%30.12 "HgN/A
10:20 AM72 °FPassing clouds.2 mph69%30.12 "HgN/A
9:50 AM70 °FSunny.No wind78%30.12 "Hg10 mi
8:50 AM66 °FFog.2 mph94%30.12 "Hg3 mi
8:20 AM66 °FFog.No wind88%30.12 "Hg2 mi
7:50 AM64 °FFog.No wind94%30.09 "Hg2 mi
7:20 AM63 °FFog.No wind94%30.09 "Hg2 mi
6:50 AM63 °FFog.No wind94%30.09 "Hg1 mi
6:20 AM63 °FFog.No wind94%30.09 "Hg2 mi
Weather by CustomWeather, © 2016

See weather overviewHow to use our weather pages